N0JVW-13 Weather Reports


time (UTC)temp
C
wind
direction
speed
KPH
gust
KPH
rain 1hr
cm
rain 24hr
cm
rain mn
cm
humidity
%
barometer
mb
20260905161035 32 317 0.0 0.0 0.00 0.00 0.00 55 1013.1
20260905160515 32 317 0.0 0.0 0.00 0.00 0.00 56 1013.0
20260905160108 32 317 0.0 0.0 0.00 0.00 0.00 57 1013.0
20260905155538 32 317 0.0 0.0 0.00 0.00 0.00 59 1013.0
20260905155018 31 317 0.0 0.0 0.00 0.00 0.00 59 1012.9
20260905154641 31 92 0.0 0.0 0.00 0.00 0.00 60 1012.9
20260905154044 31 92 0.0 0.0 0.00 0.00 0.00 59 1012.9
20260905153519 31 152 0.0 0.0 0.00 0.00 0.00 61 1012.9
20260905153104 31 152 0.0 0.0 0.00 0.00 0.00 60 1012.9
20260905152542 31 152 0.0 0.0 0.00 0.00 0.00 62 1012.9
20260905152021 31 152 0.0 0.0 0.00 0.00 0.00 64 1012.9
20260905151501 30 152 0.0 0.0 0.00 0.00 0.00 65 1012.9
20260905151043 30 152 0.0 0.0 0.00 0.00 0.00 65 1012.9
20260905150525 30 152 0.0 0.0 0.00 0.00 0.00 67 1012.8
20260905150005 30 152 0.0 0.0 0.00 0.00 0.00 66 1012.8
20260905145549 29 152 0.0 0.0 0.00 0.00 0.00 68 1012.8
20260905145028 29 152 0.0 0.0 0.00 0.00 0.00 68 1012.8
20260905144507 28 152 0.0 0.0 0.00 0.00 0.00 69 1012.7
20260905144051 28 152 0.0 0.0 0.00 0.00 0.00 70 1012.6
20260905143532 28 152 0.0 0.0 0.00 0.00 0.00 70 1012.7
20260905143010 27 152 0.0 0.0 0.00 0.00 0.00 71 1012.6
20260905142555 27 152 0.0 0.0 0.00 0.00 0.00 71 1012.6
20260905142034 27 152 0.0 0.0 0.00 0.00 0.00 71 1012.6
20260905141514 27 152 0.0 0.0 0.00 0.00 0.00 70 1012.6
20260905141057 26 152 0.0 0.0 0.00 0.00 0.00 69 1012.7
20260905140536 26 152 0.0 0.0 0.00 0.00 0.00 66 1012.7
20260905140016 26 152 0.0 0.0 0.00 0.00 0.00 63 1012.6
20260905135559 26 152 0.0 0.0 0.00 0.00 0.00 62 1012.6
20260905135038 26 152 0.0 0.0 0.00 0.00 0.00 61 1012.6
20260905134522 25 152 0.0 0.0 0.00 0.00 0.00 62 1012.5
20260905134103 25 152 0.0 0.0 0.00 0.00 0.00 59 1012.4
20260905133540 25 152 0.0 0.0 0.00 0.00 0.00 56 1012.4
20260905133020 25 152 0.0 0.0 0.00 0.00 0.00 55 1012.3
20260905132604 25 152 0.0 0.0 0.00 0.00 0.00 52 1012.3
20260905132044 25 152 0.0 0.0 0.00 0.00 0.00 51 1012.3
20260905131533 25 152 0.0 0.0 0.00 0.00 0.00 51 1012.2
20260905131002 24 152 0.0 0.0 0.00 0.00 0.00 49 1012.2
20260905130551 24 152 0.0 0.0 0.00 0.00 0.00 48 1012.1
20260905130026 24 152 0.0 0.0 0.00 0.00 0.00 49 1012.0
20260905125505 24 152 0.0 0.0 0.00 0.00 0.00 50 1012.0
20260905125048 24 152 0.0 0.0 0.00 0.00 0.00 50 1011.9
20260905124527 23 152 0.0 0.0 0.00 0.00 0.00 49 1011.9
20260905124006 23 152 0.0 0.0 0.00 0.00 0.00 47 1011.9
20260905123550 23 152 0.0 0.0 0.00 0.00 0.00 47 1011.9
20260905123037 23 152 0.0 0.0 0.00 0.00 0.00 47 1011.8
20260905122509 23 152 0.0 0.0 0.00 0.00 0.00 47 1011.7
20260905122051 23 152 0.0 0.0 0.00 0.00 0.00 47 1011.7
20260905121537 23 152 0.0 0.0 0.00 0.00 0.00 52 1011.7
20260905121011 23 152 0.0 0.0 0.00 0.00 0.00 51 1011.7
20260905120554 23 152 0.0 0.0 0.00 0.00 0.00 49 1011.8
20260905120041 23 152 0.0 0.0 0.00 0.00 0.00 54 1011.7
20260905115513 23 152 0.0 0.0 0.00 0.00 0.00 54 1011.6
20260905115058 24 152 0.0 0.0 0.00 0.00 0.00 52 1011.6
20260905114537 24 152 0.0 0.0 0.00 0.00 0.00 54 1011.5
20260905114016 24 152 0.0 0.0 0.00 0.00 0.00 58 1011.4
20260905113556 24 149 0.0 0.0 0.00 0.00 0.00 58 1011.3
20260905113035 24 148 0.0 0.0 0.00 0.00 0.00 58 1011.3
20260905112515 24 127 0.0 1.6 0.00 0.00 0.00 58 1011.3
20260905112102 24 127 0.0 1.6 0.00 0.00 0.00 60 1011.2
20260905111552 24 127 0.0 0.0 0.00 0.00 0.00 59 1011.2
20260905111017 24 127 0.0 1.6 0.00 0.00 0.00 57 1011.1
20260905110600 24 127 0.0 1.6 0.00 0.00 0.00 56 1011.1
20260905110042 24 127 0.0 0.0 0.00 0.00 0.00 55 1010.9
20260905105520 24 127 0.0 0.0 0.00 0.00 0.00 56 1011.0
20260905105101 24 127 0.0 0.0 0.00 0.00 0.00 58 1011.0
20260905104604 24 127 0.0 0.0 0.00 0.00 0.00 58 1010.9
20260905104021 24 127 0.0 0.0 0.00 0.00 0.00 58 1010.9
20260905103605 24 127 0.0 0.0 0.00 0.00 0.00 59 1010.8
20260905103044 24 127 0.0 0.0 0.00 0.00 0.00 58 1010.8
20260905102523 24 127 0.0 0.0 0.00 0.00 0.00 58 1010.9
20260905102002 24 127 0.0 0.0 0.00 0.00 0.00 58 1010.9
20260905101550 24 127 0.0 0.0 0.00 0.00 0.00 58 1010.9
20260905101025 24 127 0.0 0.0 0.00 0.00 0.00 58 1011.0
20260905100505 24 127 0.0 0.0 0.00 0.00 0.00 57 1011.0
20260905100049 24 127 0.0 0.0 0.00 0.00 0.00 57 1010.9
20260905095529 24 127 0.0 0.0 0.00 0.00 0.00 57 1011.0
20260905095010 24 127 0.0 0.0 0.00 0.00 0.00 56 1011.0
20260905094659 24 127 0.0 0.0 0.00 0.00 0.00 58 1010.9
20260905094032 24 127 0.0 0.0 0.00 0.00 0.00 60 1011.0
20260905093510 24 127 0.0 0.0 0.00 0.00 0.00 61 1010.9
20260905093103 24 127 0.0 0.0 0.00 0.00 0.00 62 1010.9
20260905092535 24 127 0.0 0.0 0.00 0.00 0.00 62 1010.9
20260905092016 24 127 0.0 0.0 0.00 0.00 0.00 62 1010.9
20260905091602 24 127 0.0 0.0 0.00 0.00 0.00 62 1010.9
20260905091035 24 127 0.0 0.0 0.00 0.00 0.00 62 1011.0
20260905090517 25 127 0.0 0.0 0.00 0.00 0.00 62 1010.9
20260905090059 25 127 0.0 0.0 0.00 0.00 0.00 62 1010.9
20260905085538 25 127 0.0 0.0 0.00 0.00 0.00 64 1010.8
20260905085022 25 127 0.0 0.0 0.00 0.00 0.00 64 1010.8
20260905084609 25 127 0.0 0.0 0.00 0.00 0.00 64 1010.8
20260905084044 25 127 0.0 0.0 0.00 0.00 0.00 65 1010.8
20260905083521 25 127 0.0 0.0 0.00 0.00 0.00 66 1010.9
20260905083104 25 127 0.0 0.0 0.00 0.00 0.00 67 1010.9
20260905082545 25 127 0.0 0.0 0.00 0.00 0.00 67 1010.9
20260905082024 25 127 0.0 0.0 0.00 0.00 0.00 67 1010.8
20260905081502 25 127 0.0 0.0 0.00 0.00 0.00 67 1010.8
20260905081045 25 127 0.0 0.0 0.00 0.00 0.00 66 1010.8
20260905080527 25 127 0.0 0.0 0.00 0.00 0.00 68 1010.9
20260905080006 25 127 0.0 0.0 0.00 0.00 0.00 68 1010.8
20260905075548 25 127 0.0 0.0 0.00 0.00 0.00 69 1010.8
20260905075030 25 127 0.0 0.0 0.00 0.00 0.00 69 1010.8
20260905074506 25 127 0.0 0.0 0.00 0.00 0.00 69 1010.7
20260905074050 25 127 0.0 0.0 0.00 0.00 0.00 70 1010.8
20260905073529 25 127 0.0 0.0 0.00 0.00 0.00 70 1010.8
20260905073009 25 127 0.0 0.0 0.00 0.00 0.00 70 1010.7
20260905072551 25 127 0.0 0.0 0.00 0.00 0.00 71 1010.7
20260905072031 25 127 0.0 0.0 0.00 0.00 0.00 70 1010.8
20260905071511 25 127 0.0 0.0 0.00 0.00 0.00 70 1010.8
20260905071054 25 127 0.0 0.0 0.00 0.00 0.00 70 1010.9
20260905070533 25 127 0.0 0.0 0.00 0.00 0.00 70 1011.0
20260905070013 25 127 0.0 0.0 0.00 0.00 0.00 70 1010.9
20260905065557 25 127 0.0 0.0 0.00 0.00 0.00 70 1011.0
20260905065035 25 127 0.0 0.0 0.00 0.00 0.00 70 1010.9
20260905064516 25 127 0.0 0.0 0.00 0.00 0.00 70 1010.9
20260905064059 25 127 0.0 0.0 0.00 0.00 0.00 70 1011.0
20260905063538 25 127 0.0 0.0 0.00 0.00 0.00 70 1011.0
20260905063018 25 127 0.0 0.0 0.00 0.00 0.00 70 1010.9
20260905062602 26 127 0.0 0.0 0.00 0.00 0.00 70 1011.0
20260905062042 25 127 0.0 0.0 0.00 0.00 0.00 71 1011.0
20260905061529 26 127 0.0 0.0 0.00 0.00 0.00 70 1011.1
20260905061105 26 127 0.0 0.0 0.00 0.00 0.00 70 1011.1
20260905060543 26 127 0.0 0.0 0.00 0.00 0.00 71 1011.1
20260905060046 26 127 0.0 0.0 0.00 0.00 0.00 71 1011.1
20260905055502 26 127 0.0 0.0 0.00 0.00 0.00 71 1011.1
20260905055046 26 127 0.0 0.0 0.00 0.00 0.00 71 1011.1
20260905054534 26 127 0.0 0.0 0.00 0.00 0.00 71 1011.1
20260905054005 26 127 0.0 0.0 0.00 0.00 0.00 70 1011.1
20260905053551 26 127 0.0 0.0 0.00 0.00 0.00 70 1011.1
20260905053029 26 127 0.0 0.0 0.00 0.00 0.00 70 1011.1
20260905052508 26 127 0.0 0.0 0.00 0.00 0.00 70 1011.2
20260905052054 26 127 0.0 0.0 0.00 0.00 0.00 70 1011.2
20260905051537 26 127 0.0 0.0 0.00 0.00 0.00 70 1011.2
20260905051010 26 127 0.0 0.0 0.00 0.00 0.00 70 1011.1
20260905050553 26 127 0.0 0.0 0.00 0.00 0.00 71 1011.1
20260905050035 26 127 0.0 0.0 0.00 0.00 0.00 71 1011.1
20260905045516 26 127 0.0 0.0 0.00 0.00 0.00 71 1011.1
20260905045058 26 127 0.0 0.0 0.00 0.00 0.00 71 1011.2
20260905044540 26 127 0.0 0.0 0.00 0.00 0.00 71 1011.2
20260905044017 26 127 0.0 0.0 0.00 0.00 0.00 71 1011.0
20260905043601 26 127 0.0 0.0 0.00 0.00 0.00 71 1010.9
20260905043042 26 127 0.0 0.0 0.00 0.00 0.00 71 1010.9
20260905042520 26 127 0.0 0.0 0.00 0.00 0.00 71 1010.9
20260905042001 26 127 0.0 0.0 0.00 0.00 0.00 71 1010.9
20260905041545 26 127 0.0 0.0 0.00 0.00 0.00 71 1010.8
20260905041024 26 127 0.0 0.0 0.00 0.00 0.00 71 1010.9
20260905040504 26 126 0.0 0.0 0.00 0.00 0.00 71 1010.9
20260905040058 26 127 0.0 0.0 0.00 0.00 0.00 71 1010.8
20260905035530 27 127 0.0 0.0 0.00 0.00 0.00 71 1010.9
20260905035006 27 127 0.0 0.0 0.00 0.00 0.00 71 1011.0
20260905034550 27 127 0.0 0.0 0.00 0.00 0.00 71 1011.0
20260905034029 27 127 0.0 0.0 0.00 0.00 0.00 71 1011.0
20260905033509 27 127 0.0 0.0 0.00 0.00 0.00 71 1011.0
20260905033104 27 127 0.0 0.0 0.00 0.00 0.00 71 1010.9
20260905032533 27 127 0.0 0.0 0.00 0.00 0.00 71 1010.9
20260905032012 27 127 0.0 0.0 0.00 0.00 0.00 71 1010.9
20260905031559 27 127 0.0 0.0 0.00 0.00 0.00 71 1010.9
20260905031035 27 127 0.0 0.0 0.00 0.00 0.00 71 1010.9
20260905030515 27 127 0.0 0.0 0.00 0.00 0.00 71 1010.8
20260905030109 27 127 0.0 0.0 0.00 0.00 0.00 71 1010.9
20260905025541 27 127 0.0 0.0 0.00 0.00 0.00 71 1010.8
20260905025017 27 127 0.0 0.0 0.00 0.00 0.00 71 1010.7
20260905024612 27 127 0.0 0.0 0.00 0.00 0.00 71 1010.7
20260905024042 27 127 0.0 0.0 0.00 0.00 0.00 71 1010.6
20260905023519 27 127 0.0 0.0 0.00 0.00 0.00 70 1010.5
20260905023101 27 127 0.0 0.0 0.00 0.00 0.00 69 1010.5
20260905022544 27 127 0.0 0.0 0.00 0.00 0.00 69 1010.5
20260905022019 28 127 0.0 0.0 0.00 0.00 0.00 68 1010.4
20260905021615 28 127 0.0 0.0 0.00 0.00 0.00 68 1010.2
20260905021042 28 127 0.0 0.0 0.00 0.00 0.00 68 1010.2
20260905020522 28 127 0.0 0.0 0.00 0.00 0.00 68 1010.1
20260905020002 28 127 0.0 0.0 0.00 0.00 0.00 68 1010.0
20260905015547 28 127 0.0 0.0 0.00 0.00 0.00 67 1010.0
20260905015027 28 127 0.0 0.0 0.00 0.00 0.00 67 1010.0
20260905014506 28 127 0.0 0.0 0.00 0.00 0.00 66 1009.9
20260905014048 28 127 0.0 0.0 0.00 0.00 0.00 65 1009.8
20260905013527 29 127 0.0 0.0 0.00 0.00 0.00 65 1009.8
20260905013008 29 127 0.0 0.0 0.00 0.00 0.00 64 1009.7
20260905012550 29 127 0.0 0.0 0.00 0.00 0.00 64 1009.7
20260905012030 30 127 0.0 0.0 0.00 0.00 0.00 63 1009.6
20260905011509 30 127 0.0 0.0 0.00 0.00 0.00 63 1009.6
20260905011052 30 127 0.0 0.0 0.00 0.00 0.00 63 1009.5
20260905010532 30 127 0.0 0.0 0.00 0.00 0.00 61 1009.4
20260905010011 30 127 0.0 0.0 0.00 0.00 0.00 60 1009.4
20260905005555 31 127 0.0 0.0 0.00 0.00 0.00 60 1009.5
20260905005035 31 127 0.0 0.0 0.00 0.00 0.00 59 1009.4
20260905004514 31 127 0.0 0.0 0.00 0.00 0.00 58 1009.5
20260905004058 31 127 0.0 0.0 0.00 0.00 0.00 58 1009.5
20260905003538 31 127 0.0 0.0 0.00 0.00 0.00 57 1009.4
20260905003018 32 127 0.0 0.0 0.00 0.00 0.00 56 1009.4
20260905002601 32 127 0.0 0.0 0.00 0.00 0.00 56 1009.4
20260905002042 32 127 0.0 0.0 0.00 0.00 0.00 55 1009.5
20260905001518 32 127 0.0 0.0 0.00 0.00 0.00 54 1009.6
20260905001101 32 127 0.0 0.0 0.00 0.00 0.00 54 1009.5
20260905000542 32 127 0.0 0.0 0.00 0.00 0.00 53 1009.5
20260905000021 33 127 0.0 0.0 0.00 0.00 0.00 53 1009.5
20260904235603 33 127 0.0 0.0 0.00 0.00 0.00 52 1009.5
20260904235043 33 127 0.0 0.0 0.00 0.00 0.00 52 1009.6
20260904234528 33 161 0.0 0.0 0.00 0.00 0.00 51 1009.6
20260904234000 33 161 0.0 1.6 0.00 0.00 0.00 50 1009.7
20260904233549 33 144 0.0 1.6 0.00 0.00 0.00 50 1009.7
20260904233024 33 140 0.0 1.6 0.00 0.00 0.00 50 1009.7
20260904232503 33 153 0.0 3.2 0.00 0.00 0.00 49 1009.8
20260904232045 33 127 0.0 3.2 0.00 0.00 0.00 49 1009.8
20260904231525 33 153 0.0 4.8 0.00 0.00 0.00 48 1009.8
20260904231003 33 123 0.0 3.2 0.00 0.00 0.00 48 1009.8
20260904230548 33 153 0.0 3.2 0.00 0.00 0.00 49 1009.8
20260904230036 33 133 0.0 3.2 0.00 0.00 0.00 48 1009.9
20260904225509 34 160 0.0 3.2 0.00 0.00 0.00 48 1009.9
20260904225049 34 153 0.0 4.8 0.00 0.00 0.00 49 1010.0
20260904224533 34 158 0.0 4.8 0.00 0.00 0.00 48 1009.9
20260904224012 34 158 0.0 3.2 0.00 0.00 0.00 49 1009.8
20260904223554 34 114 0.0 3.2 0.00 0.00 0.00 48 1009.8
20260904223033 34 155 0.0 4.8 0.00 0.00 0.00 48 1009.9
20260904222514 34 167 1.6 4.8 0.00 0.00 0.00 48 1009.8
20260904222055 34 141 0.0 4.8 0.00 0.00 0.00 49 1009.8
20260904221536 34 158 0.0 4.8 0.00 0.00 0.00 48 1009.9
20260904221015 34 142 0.0 3.2 0.00 0.00 0.00 49 1010.0
20260904220558 34 102 0.0 4.8 0.00 0.00 0.00 50 1010.0
20260904220043 34 111 0.0 4.8 0.00 0.00 0.00 50 1010.0
20260904215518 34 133 0.0 1.6 0.00 0.00 0.00 50 1010.1
20260904215103 34 140 0.0 3.2 0.00 0.00 0.00 50 1010.1
20260904214548 34 117 0.0 3.2 0.00 0.00 0.00 50 1010.1
20260904214024 34 162 0.0 4.8 0.00 0.00 0.00 50 1010.1
20260904213604 34 149 1.6 4.8 0.00 0.00 0.00 49 1010.2
20260904213044 34 127 0.0 4.8 0.00 0.00 0.00 50 1010.2
20260904212524 34 165 0.0 4.8 0.00 0.00 0.00 49 1010.1
20260904212003 34 165 0.0 6.4 0.00 0.00 0.00 49 1010.2
20260904211547 34 122 1.6 6.4 0.00 0.00 0.00 50 1010.2
20260904211027 34 140 0.0 6.4 0.00 0.00 0.00 49 1010.3
20260904210612 34 147 0.0 6.4 0.00 0.00 0.00 50 1010.3
20260904210106 34 159 0.0 4.8 0.00 0.00 0.00 50 1010.4
20260904205538 34 163 0.0 4.8 0.00 0.00 0.00 50 1010.5
20260904205020 34 148 0.0 1.6 0.00 0.00 0.00 50 1010.5
20260904204600 34 136 0.0 4.8 0.00 0.00 0.00 50 1010.4
20260904204039 34 158 0.0 4.8 0.00 0.00 0.00 50 1010.5
20260904203520 35 160 0.0 4.8 0.00 0.00 0.00 51 1010.6
20260904203103 34 160 1.6 4.8 0.00 0.00 0.00 51 1010.7
20260904202542 34 127 0.0 4.8 0.00 0.00 0.00 51 1010.6
20260904202021 34 127 0.0 4.8 0.00 0.00 0.00 51 1010.7
20260904201501 34 134 0.0 4.8 0.00 0.00 0.00 50 1010.7
20260904201045 34 160 0.0 4.8 0.00 0.00 0.00 51 1010.8
20260904200630 34 162 0.0 6.4 0.00 0.00 0.00 51 1010.8
20260904200030 34 139 0.0 6.4 0.00 0.00 0.00 50 1010.8
20260904195555 34 139 0.0 6.4 0.00 0.00 0.00 50 1010.9
20260904195035 34 153 0.0 6.4 0.00 0.00 0.00 51 1010.9
20260904194515 35 149 1.6 6.4 0.00 0.00 0.00 49 1011.0
20260904194058 35 132 0.0 4.8 0.00 0.00 0.00 51 1010.9
20260904193538 34 158 1.6 3.2 0.00 0.00 0.00 52 1011.0
20260904193019 34 129 0.0 3.2 0.00 0.00 0.00 52 1011.1
20260904192601 34 139 0.0 4.8 0.00 0.00 0.00 52 1011.1
20260904192043 34 151 1.6 6.4 0.00 0.00 0.00 51 1011.2
20260904191519 34 142 0.0 6.4 0.00 0.00 0.00 51 1011.2
20260904191104 34 166 0.0 4.8 0.00 0.00 0.00 51 1011.2
20260904190542 34 121 1.6 4.8 0.00 0.00 0.00 52 1011.3
20260904190021 33 124 0.0 9.7 0.00 0.00 0.00 53 1011.3
20260904185501 33 125 1.6 9.7 0.00 0.00 0.00 52 1011.3
20260904185048 33 165 1.6 6.4 0.00 0.00 0.00 51 1011.3
20260904184524 33 122 0.0 6.4 0.00 0.00 0.00 53 1011.4
20260904184003 33 163 1.6 6.4 0.00 0.00 0.00 54 1011.4
20260904183546 33 134 0.0 4.8 0.00 0.00 0.00 55 1011.4
20260904183025 33 160 0.0 4.8 0.00 0.00 0.00 54 1011.5
20260904182505 33 172 0.0 4.8 0.00 0.00 0.00 55 1011.5
20260904182048 33 165 0.0 3.2 0.00 0.00 0.00 55 1011.5
20260904181528 33 161 0.0 4.8 0.00 0.00 0.00 54 1011.6
20260904181007 33 165 0.0 1.6 0.00 0.00 0.00 56 1011.7
20260904180551 33 169 0.0 6.4 0.00 0.00 0.00 55 1011.7
20260904180030 33 173 0.0 8.0 0.00 0.00 0.00 56 1011.8
20260904175511 33 159 1.6 4.8 0.00 0.00 0.00 56 1011.8
20260904175053 33 152 0.0 6.4 0.00 0.00 0.00 57 1012.0
20260904174533 32 162 0.0 6.4 0.00 0.00 0.00 58 1011.9
20260904174013 32 158 0.0 6.4 0.00 0.00 0.00 57 1011.9
20260904173556 32 117 3.2 6.4 0.00 0.00 0.00 57 1012.0
20260904173036 32 157 0.0 4.8 0.00 0.00 0.00 59 1012.1
20260904172515 32 169 0.0 4.8 0.00 0.00 0.00 58 1012.1
20260904172059 32 115 0.0 4.8 0.00 0.00 0.00 58 1012.1
20260904171606 32 169 1.6 6.4 0.00 0.00 0.00 59 1012.2
20260904171017 32 162 0.0 8.0 0.00 0.00 0.00 60 1012.2
20260904170600 32 178 1.6 8.0 0.00 0.00 0.00 59 1012.3
20260904170041 32 134 1.6 8.0 0.00 0.00 0.00 60 1012.3
20260904165522 31 154 0.0 6.4 0.00 0.00 0.00 61 1012.3
20260904165103 31 205 0.0 6.4 0.00 0.00 0.00 61 1012.5
20260904164543 31 154 1.6 6.4 0.00 0.00 0.00 64 1012.6
20260904164021 31 210 0.0 1.6 0.00 0.00 0.00 64 1012.6
20260904163501 31 210 0.0 4.8 0.00 0.00 0.00 63 1012.6
20260904163053 31 210 0.0 4.8 0.00 0.00 0.00 63 1012.6
20260904162525 31 133 0.0 3.2 0.00 0.00 0.00 65 1012.6
20260904162004 30 134 0.0 3.2 0.00 0.00 0.00 65 1012.6
20260904161556 30 139 0.0 0.0 0.00 0.00 0.00 66 1012.5